Precipitable_Water
0.21 0.21 0.21 0.22 0.21 0.22 0.22 0.22 0.24 0.25 0.25 0.27 0.26 0.26 0.25 0.25 0.25 0.26 0.27 0.27 0.29 0.32 0.34 0.36 0.38 0.39 0.41 0.43 0.45 0.44 0.38 0.32 0.29 0.27 0.24 0.28 0.35 0.36 0.32 0.30 0.27 0.27 0.27 0.27 0.24 0.20 0.16 0.16 0.16 0.17 0.16 0.17 0.17 0.19 0.22 0.24 0.26 0.21 0.15 0.13 0.13 0.15 0.15 0.18 0.18 0.20 0.22 0.22 0.27 0.31 0.32 0.30 0.28 0.33 0.35 0.38 0.35 0.35 0.35 0.34 0.38 0.41 0.41 0.42 0.43 0.46 0.44 0.43
0.22 0.23 0.23 0.22 0.23 0.22 0.24 0.25 0.25 0.26 0.27 0.26 0.27 0.26 0.26 0.26 0.27 0.29 0.30 0.31 0.31 0.33 0.36 0.39 0.41 0.41 0.42 0.43 0.44 0.45 0.38 0.31 0.28 0.27 0.25 0.36 0.36 0.34 0.32 0.28 0.26 0.26 0.27 0.22 0.20 0.18 0.16 0.15 0.17 0.17 0.15 0.15 0.21 0.17 0.24 0.20 0.27 0.20 0.16 0.16 0.13 0.17 0.18 0.23 0.23 0.24 0.23 0.24 0.29 0.32 0.34 0.32 0.31 0.33 0.34 0.31 0.31 0.32 0.31 0.33 0.37 0.36 0.39 0.42 0.42 0.42 0.42 0.42
0.25 0.23 0.23 0.23 0.23 0.24 0.24 0.26 0.27 0.27 0.27 0.26 0.26 0.26 0.27 0.30 0.33 0.35 0.36 0.36 0.37 0.38 0.40 0.42 0.44 0.44 0.44 0.43 0.42 0.41 0.35 0.32 0.31 0.25 0.29 0.38 0.35 0.33 0.32 0.29 0.27 0.26 0.26 0.23 0.22 0.21 0.19 0.19 0.19 0.17 0.16 0.16 0.20 0.17 0.21 0.20 0.24 0.20 0.19 0.15 0.17 0.21 0.22 0.25 0.26 0.25 0.29 0.29 0.30 0.31 0.33 0.33 0.33 0.34 0.37 0.31 0.30 0.32 0.29 0.30 0.33 0.33 0.34 0.37 0.39 0.40 0.40 0.39
0.25 0.25 0.25 0.24 0.24 0.24 0.26 0.27 0.28 0.27 0.26 0.26 0.26 0.29 0.32 0.36 0.38 0.38 0.39 0.38 0.39 0.40 0.42 0.44 0.46 0.47 0.47 0.43 0.42 0.39 0.36 0.29 0.26 0.30 0.36 0.40 0.37 0.35 0.32 0.28 0.26 0.27 0.28 0.27 0.27 0.24 0.24 0.22 0.20 0.19 0.17 0.16 0.19 0.20 0.16 0.19 0.18 0.20 0.19 0.17 0.20 0.24 0.22 0.25 0.28 0.29 0.31 0.32 0.29 0.30 0.32 0.31 0.33 0.35 0.35 0.32 0.29 0.29 0.32 0.35 0.34 0.33 0.35 0.37 0.38 0.38 0.37 0.35
0.25 0.25 0.25 0.25 0.25 0.26 0.29 0.30 0.29 0.27 0.27 0.29 0.32 0.35 0.37 0.39 0.40 0.40 0.41 0.43 0.43 0.43 0.44 0.47 0.49 0.51 0.48 0.50 0.48 0.42 0.31 0.25 0.25 0.36 0.40 0.42 0.40 0.38 0.33 0.29 0.28 0.27 0.27 0.28 0.29 0.25 0.24 0.21 0.20 0.20 0.18 0.16 0.19 0.19 0.19 0.20 0.22 0.21 0.19 0.22 0.24 0.25 0.23 0.28 0.29 0.31 0.31 0.32 0.30 0.30 0.28 0.28 0.35 0.35 0.33 0.32 0.27 0.27 0.32 0.36 0.38 0.38 0.39 0.38 0.36 0.37 0.37 0.36
0.27 0.27 0.28 0.28 0.29 0.30 0.32 0.33 0.34 0.35 0.36 0.37 0.38 0.39 0.40 0.41 0.41 0.42 0.44 0.45 0.46 0.47 0.49 0.50 0.51 0.51 0.52 0.49 0.48 0.47 0.35 0.17 0.33 0.37 0.43 0.43 0.42 0.40 0.35 0.30 0.29 0.29 0.31 0.28 0.26 0.24 0.25 0.23 0.19 0.17 0.18 0.18 0.19 0.17 0.22 0.22 0.25 0.17 0.22 0.23 0.25 0.27 0.25 0.30 0.30 0.31 0.31 0.29 0.28 0.28 0.30 0.33 0.32 0.32 0.34 0.33 0.31 0.34 0.39 0.40 0.40 0.41 0.41 0.39 0.38 0.38 0.37 0.35
0.31 0.30 0.30 0.30 0.31 0.33 0.34 0.36 0.38 0.39 0.40 0.40 0.40 0.41 0.41 0.42 0.42 0.43 0.45 0.46 0.48 0.50 0.51 0.52 0.53 0.52 0.52 0.58 0.48 0.38 0.31 0.31 0.39 0.42 0.44 0.46 0.46 0.43 0.37 0.32 0.31 0.30 0.32 0.25 0.24 0.25 0.25 0.23 0.21 0.20 0.19 0.20 0.21 0.20 0.22 0.21 0.23 0.20 0.19 0.24 0.26 0.29 0.27 0.31 0.29 0.31 0.30 0.29 0.27 0.31 0.33 0.29 0.30 0.27 0.35 0.33 0.36 0.38 0.41 0.43 0.42 0.42 0.42 0.40 0.38 0.39 0.35 0.34
0.31 0.32 0.32 0.33 0.34 0.36 0.38 0.39 0.41 0.41 0.42 0.42 0.42 0.42 0.42 0.43 0.44 0.46 0.48 0.49 0.51 0.52 0.53 0.53 0.55 0.56 0.54 0.50 0.42 0.32 0.32 0.31 0.40 0.45 0.46 0.47 0.46 0.44 0.39 0.34 0.35 0.33 0.31 0.30 0.30 0.28 0.27 0.23 0.21 0.24 0.21 0.19 0.22 0.21 0.23 0.21 0.23 0.21 0.22 0.25 0.27 0.29 0.29 0.31 0.30 0.30 0.30 0.30 0.32 0.32 0.29 0.29 0.32 0.32 0.35 0.32 0.37 0.40 0.42 0.44 0.43 0.42 0.40 0.40 0.39 0.36 0.34 0.34
0.36 0.37 0.38 0.39 0.40 0.40 0.41 0.41 0.42 0.42 0.42 0.43 0.43 0.44 0.46 0.46 0.48 0.50 0.51 0.51 0.52 0.53 0.54 0.57 0.58 0.62 0.58 0.54 0.39 0.30 0.30 0.40 0.44 0.46 0.47 0.46 0.45 0.44 0.39 0.31 0.33 0.33 0.32 0.34 0.36 0.33 0.27 0.26 0.26 0.27 0.20 0.22 0.25 0.22 0.24 0.21 0.19 0.24 0.24 0.27 0.28 0.27 0.29 0.30 0.29 0.29 0.29 0.30 0.31 0.29 0.28 0.32 0.33 0.37 0.32 0.35 0.38 0.42 0.44 0.43 0.42 0.41 0.40 0.39 0.38 0.38 0.36 0.35
0.42 0.41 0.41 0.40 0.41 0.41 0.43 0.44 0.45 0.45 0.46 0.47 0.48 0.49 0.50 0.51 0.51 0.51 0.51 0.51 0.52 0.53 0.54 0.54 0.54 0.52 0.45 0.38 0.35 0.26 0.36 0.45 0.46 0.46 0.47 0.47 0.45 0.42 0.37 0.34 0.33 0.33 0.32 0.34 0.35 0.34 0.29 0.30 0.27 0.30 0.29 0.28 0.31 0.26 0.29 0.24 0.21 0.27 0.26 0.27 0.26 0.27 0.27 0.29 0.27 0.29 0.30 0.29 0.31 0.27 0.28 0.31 0.36 0.34 0.27 0.37 0.40 0.43 0.43 0.41 0.42 0.41 0.40 0.40 0.39 0.40 0.38 0.35
0.44 0.44 0.44 0.45 0.46 0.47 0.48 0.48 0.48 0.49 0.49 0.50 0.51 0.51 0.52 0.51 0.50 0.50 0.49 0.50 0.49 0.51 0.52 0.50 0.48 0.43 0.37 0.37 0.28 0.25 0.42 0.43 0.45 0.46 0.47 0.46 0.43 0.38 0.34 0.34 0.34 0.33 0.33 0.34 0.34 0.37 0.36 0.34 0.34 0.32 0.29 0.25 0.26 0.24 0.24 0.25 0.28 0.27 0.27 0.27 0.27 0.28 0.29 0.29 0.29 0.28 0.29 0.27 0.31 0.30 0.28 0.33 0.34 0.35 0.30 0.36 0.41 0.43 0.41 0.41 0.41 0.41 0.40 0.40 0.40 0.40 0.38 0.37
0.49 0.49 0.50 0.51 0.50 0.50 0.50 0.51 0.51 0.52 0.52 0.51 0.51 0.49 0.48 0.47 0.47 0.47 0.47 0.48 0.50 0.50 0.51 0.51 0.50 0.46 0.37 0.32 0.28 0.30 0.42 0.42 0.45 0.46 0.45 0.44 0.40 0.38 0.38 0.38 0.36 0.34 0.33 0.33 0.36 0.39 0.38 0.35 0.37 0.36 0.21 0.29 0.22 0.27 0.26 0.31 0.28 0.27 0.28 0.23 0.25 0.27 0.25 0.28 0.26 0.28 0.30 0.26 0.32 0.32 0.28 0.27 0.31 0.29 0.35 0.38 0.42 0.42 0.41 0.41 0.41 0.41 0.41 0.40 0.40 0.40 0.39 0.37
0.51 0.51 0.51 0.51 0.52 0.52 0.52 0.52 0.52 0.51 0.50 0.49 0.48 0.46 0.45 0.45 0.44 0.44 0.45 0.44 0.45 0.46 0.48 0.49 0.48 0.44 0.37 0.26 0.31 0.39 0.43 0.44 0.45 0.45 0.44 0.43 0.41 0.40 0.39 0.40 0.39 0.40 0.38 0.36 0.36 0.39 0.39 0.36 0.32 0.26 0.29 0.27 0.26 0.22 0.29 0.33 0.29 0.29 0.28 0.25 0.23 0.23 0.21 0.26 0.28 0.29 0.28 0.28 0.32 0.31 0.16 0.21 0.28 0.34 0.36 0.40 0.41 0.42 0.41 0.40 0.41 0.41 0.42 0.41 0.40 0.39 0.39 0.39
0.51 0.51 0.51 0.51 0.50 0.49 0.48 0.48 0.47 0.46 0.46 0.45 0.45 0.44 0.44 0.44 0.44 0.44 0.45 0.45 0.47 0.48 0.48 0.52 0.53 0.42 0.32 0.27 0.34 0.39 0.42 0.44 0.45 0.44 0.43 0.43 0.39 0.38 0.41 0.42 0.42 0.42 0.41 0.37 0.38 0.38 0.37 0.36 0.34 0.33 0.35 0.28 0.24 0.35 0.29 0.29 0.31 0.24 0.25 0.25 0.19 0.19 0.17 0.25 0.26 0.27 0.26 0.30 0.31 0.31 0.17 0.21 0.28 0.34 0.38 0.40 0.41 0.40 0.39 0.40 0.40 0.42 0.42 0.42 0.41 0.40 0.40 0.40
0.51 0.50 0.49 0.48 0.47 0.46 0.46 0.45 0.45 0.44 0.44 0.44 0.44 0.44 0.44 0.44 0.45 0.45 0.45 0.45 0.46 0.50 0.54 0.55 0.51 0.47 0.27 0.28 0.37 0.40 0.43 0.44 0.40 0.40 0.44 0.41 0.38 0.36 0.37 0.38 0.38 0.38 0.38 0.38 0.38 0.39 0.38 0.37 0.35 0.30 0.27 0.35 0.32 0.27 0.23 0.24 0.27 0.26 0.22 0.17 0.20 0.18 0.18 0.23 0.28 0.27 0.23 0.29 0.32 0.30 0.20 0.22 0.28 0.33 0.38 0.40 0.41 0.41 0.39 0.40 0.41 0.42 0.43 0.43 0.41 0.40 0.40 0.40
0.49 0.48 0.47 0.46 0.45 0.45 0.44 0.43 0.43 0.43 0.43 0.42 0.42 0.43 0.44 0.45 0.45 0.45 0.45 0.45 0.45 0.47 0.50 0.38 0.39 0.33 0.26 0.24 0.31 0.41 0.38 0.33 0.36 0.42 0.45 0.44 0.40 0.35 0.38 0.37 0.37 0.37 0.40 0.40 0.45 0.44 0.41 0.41 0.33 0.33 0.32 0.34 0.28 0.24 0.22 0.22 0.21 0.23 0.20 0.16 0.16 0.18 0.18 0.21 0.25 0.30 0.32 0.30 0.30 0.28 0.20 0.25 0.27 0.34 0.38 0.39 0.40 0.41 0.39 0.40 0.42 0.42 0.43 0.43 0.41 0.41 0.40 0.40
0.47 0.46 0.45 0.44 0.44 0.43 0.42 0.40 0.41 0.42 0.42 0.42 0.42 0.42 0.43 0.44 0.45 0.45 0.47 0.47 0.44 0.49 0.38 0.32 0.34 0.35 0.21 0.32 0.38 0.31 0.30 0.34 0.41 0.42 0.44 0.46 0.43 0.41 0.39 0.36 0.34 0.35 0.39 0.39 0.41 0.41 0.40 0.36 0.35 0.31 0.33 0.29 0.28 0.25 0.17 0.15 0.15 0.17 0.20 0.16 0.18 0.16 0.18 0.17 0.27 0.31 0.32 0.30 0.25 0.31 0.26 0.26 0.30 0.35 0.37 0.39 0.40 0.40 0.39 0.40 0.42 0.43 0.44 0.44 0.42 0.41 0.40 0.40
0.45 0.44 0.44 0.43 0.42 0.40 0.39 0.40 0.42 0.42 0.42 0.41 0.41 0.39 0.38 0.40 0.44 0.41 0.42 0.45 0.50 0.49 0.42 0.38 0.38 0.29 0.24 0.32 0.25 0.28 0.34 0.34 0.36 0.40 0.43 0.45 0.45 0.41 0.39 0.35 0.35 0.35 0.35 0.32 0.34 0.30 0.30 0.24 0.28 0.20 0.24 0.25 0.25 0.22 0.16 0.11 0.15 0.16 0.16 0.15 0.16 0.20 0.20 0.18 0.19 0.26 0.28 0.31 0.26 0.28 0.28 0.27 0.30 0.34 0.36 0.38 0.40 0.40 0.39 0.40 0.42 0.43 0.44 0.44 0.42 0.41 0.41 0.40
0.44 0.43 0.41 0.40 0.40 0.38 0.37 0.39 0.40 0.43 0.45 0.45 0.44 0.43 0.43 0.42 0.42 0.38 0.34 0.33 0.29 0.25 0.23 0.25 0.25 0.19 0.18 0.26 0.32 0.33 0.33 0.36 0.38 0.38 0.36 0.40 0.41 0.41 0.39 0.38 0.35 0.31 0.24 0.24 0.24 0.26 0.26 0.23 0.24 0.18 0.16 0.19 0.20 0.21 0.18 0.19 0.21 0.17 0.18 0.17 0.17 0.16 0.16 0.18 0.23 0.28 0.27 0.24 0.23 0.25 0.24 0.27 0.30 0.32 0.35 0.37 0.40 0.39 0.40 0.42 0.43 0.44 0.45 0.44 0.42 0.42 0.41 0.40
0.43 0.43 0.41 0.40 0.38 0.36 0.36 0.36 0.36 0.39 0.45 0.47 0.54 0.46 0.39 0.31 0.27 0.26 0.33 0.32 0.28 0.28 0.29 0.30 0.31 0.30 0.30 0.30 0.30 0.35 0.38 0.38 0.30 0.34 0.37 0.40 0.37 0.32 0.32 0.33 0.29 0.27 0.22 0.18 0.21 0.23 0.26 0.17 0.16 0.16 0.18 0.20 0.22 0.24 0.23 0.24 0.23 0.21 0.20 0.18 0.17 0.18 0.18 0.22 0.24 0.27 0.30 0.25 0.23 0.25 0.27 0.28 0.29 0.31 0.34 0.37 0.39 0.39 0.40 0.41 0.42 0.43 0.44 0.44 0.42 0.42 0.42 0.41
0.42 0.42 0.40 0.38 0.37 0.35 0.36 0.34 0.35 0.37 0.42 0.41 0.42 0.35 0.26 0.29 0.23 0.20 0.27 0.30 0.34 0.34 0.31 0.31 0.31 0.29 0.28 0.31 0.33 0.32 0.27 0.28 0.32 0.31 0.35 0.42 0.37 0.29 0.25 0.27 0.20 0.17 0.21 0.21 0.19 0.25 0.24 0.15 0.17 0.21 0.22 0.23 0.23 0.24 0.25 0.23 0.23 0.21 0.19 0.18 0.18 0.19 0.17 0.22 0.23 0.29 0.31 0.24 0.22 0.26 0.25 0.25 0.27 0.31 0.34 0.38 0.37 0.36 0.39 0.40 0.41 0.43 0.44 0.44 0.43 0.43 0.43 0.43
0.40 0.39 0.38 0.36 0.35 0.34 0.34 0.34 0.35 0.36 0.42 0.33 0.30 0.27 0.29 0.32 0.40 0.40 0.36 0.23 0.31 0.34 0.32 0.32 0.33 0.30 0.34 0.33 0.36 0.35 0.31 0.25 0.25 0.30 0.35 0.37 0.30 0.23 0.26 0.22 0.19 0.17 0.24 0.24 0.21 0.17 0.15 0.15 0.19 0.23 0.25 0.25 0.23 0.23 0.23 0.21 0.19 0.20 0.18 0.17 0.17 0.18 0.21 0.24 0.26 0.29 0.28 0.25 0.21 0.26 0.23 0.23 0.26 0.30 0.34 0.36 0.36 0.38 0.41 0.42 0.43 0.43 0.43 0.44 0.45 0.44 0.44 0.44
0.39 0.38 0.36 0.35 0.34 0.34 0.33 0.34 0.34 0.35 0.31 0.26 0.25 0.29 0.31 0.41 0.44 0.44 0.38 0.26 0.25 0.33 0.30 0.29 0.27 0.29 0.30 0.34 0.35 0.36 0.25 0.24 0.23 0.28 0.31 0.33 0.26 0.26 0.24 0.19 0.19 0.20 0.21 0.21 0.14 0.14 0.12 0.17 0.22 0.25 0.24 0.21 0.20 0.21 0.21 0.21 0.21 0.18 0.17 0.16 0.14 0.19 0.17 0.14 0.23 0.27 0.28 0.25 0.22 0.25 0.23 0.24 0.27 0.31 0.33 0.37 0.38 0.39 0.42 0.44 0.45 0.46 0.44 0.44 0.46 0.46 0.45 0.44
0.37 0.37 0.35 0.34 0.33 0.33 0.34 0.33 0.35 0.29 0.27 0.28 0.27 0.29 0.39 0.45 0.46 0.44 0.32 0.20 0.20 0.26 0.30 0.29 0.30 0.30 0.30 0.29 0.35 0.32 0.26 0.27 0.29 0.26 0.38 0.35 0.27 0.31 0.26 0.23 0.20 0.21 0.18 0.19 0.18 0.16 0.17 0.21 0.27 0.25 0.23 0.21 0.18 0.19 0.19 0.19 0.17 0.19 0.19 0.18 0.17 0.17 0.18 0.18 0.18 0.24 0.27 0.28 0.29 0.25 0.23 0.22 0.25 0.26 0.30 0.36 0.40 0.39 0.42 0.44 0.45 0.46 0.48 0.49 0.49 0.48 0.46 0.44
0.37 0.36 0.35 0.35 0.33 0.35 0.32 0.35 0.27 0.28 0.32 0.27 0.27 0.37 0.38 0.41 0.42 0.36 0.29 0.25 0.19 0.22 0.35 0.32 0.32 0.30 0.33 0.41 0.41 0.30 0.30 0.29 0.30 0.34 0.37 0.36 0.30 0.29 0.25 0.29 0.24 0.17 0.19 0.20 0.20 0.17 0.18 0.24 0.27 0.22 0.21 0.20 0.19 0.17 0.19 0.19 0.16 0.17 0.19 0.18 0.18 0.19 0.18 0.19 0.21 0.20 0.18 0.19 0.25 0.24 0.16 0.16 0.23 0.27 0.29 0.33 0.36 0.37 0.41 0.41 0.42 0.44 0.47 0.48 0.47 0.47 0.46 0.46
0.37 0.36 0.36 0.36 0.35 0.35 0.37 0.27 0.26 0.34 0.30 0.26 0.31 0.39 0.42 0.43 0.41 0.41 0.34 0.16 0.14 0.18 0.28 0.20 0.33 0.24 0.40 0.31 0.37 0.35 0.35 0.23 0.32 0.34 0.37 0.36 0.38 0.31 0.28 0.22 0.26 0.16 0.19 0.20 0.18 0.19 0.20 0.24 0.23 0.20 0.19 0.18 0.18 0.17 0.20 0.21 0.16 0.15 0.16 0.22 0.21 0.20 0.20 0.19 0.19 0.19 0.15 0.14 0.21 0.28 0.17 0.14 0.22 0.24 0.29 0.32 0.34 0.35 0.39 0.40 0.41 0.44 0.47 0.47 0.47 0.47 0.46 0.45
0.38 0.37 0.37 0.36 0.35 0.35 0.26 0.25 0.31 0.35 0.31 0.25 0.38 0.41 0.40 0.43 0.46 0.44 0.27 0.16 0.12 0.19 0.19 0.25 0.29 0.26 0.37 0.31 0.36 0.37 0.16 0.20 0.34 0.34 0.33 0.36 0.30 0.36 0.21 0.21 0.24 0.26 0.27 0.24 0.17 0.15 0.23 0.20 0.20 0.20 0.19 0.17 0.16 0.16 0.20 0.21 0.17 0.14 0.23 0.23 0.23 0.20 0.19 0.19 0.20 0.19 0.18 0.24 0.25 0.28 0.25 0.18 0.17 0.23 0.30 0.32 0.32 0.34 0.36 0.38 0.41 0.44 0.46 0.47 0.47 0.47 0.47 0.46
0.38 0.37 0.35 0.34 0.33 0.33 0.27 0.28 0.30 0.23 0.30 0.35 0.39 0.42 0.40 0.40 0.42 0.38 0.20 0.10 0.10 0.23 0.18 0.23 0.26 0.36 0.32 0.33 0.32 0.25 0.25 0.32 0.22 0.26 0.36 0.35 0.34 0.27 0.24 0.21 0.19 0.19 0.23 0.20 0.10 0.18 0.21 0.18 0.18 0.17 0.18 0.17 0.17 0.20 0.22 0.23 0.18 0.17 0.24 0.24 0.21 0.21 0.21 0.22 0.21 0.19 0.20 0.20 0.17 0.22 0.25 0.19 0.18 0.23 0.31 0.32 0.29 0.32 0.33 0.36 0.40 0.43 0.46 0.47 0.47 0.48 0.47 0.47
0.36 0.35 0.34 0.34 0.35 0.32 0.35 0.33 0.30 0.24 0.33 0.37 0.39 0.39 0.40 0.42 0.29 0.21 0.14 0.10 0.17 0.23 0.31 0.20 0.36 0.29 0.28 0.30 0.25 0.27 0.26 0.29 0.21 0.28 0.33 0.33 0.33 0.31 0.21 0.24 0.25 0.23 0.23 0.20 0.14 0.19 0.22 0.22 0.21 0.21 0.19 0.18 0.22 0.24 0.24 0.22 0.17 0.21 0.24 0.25 0.23 0.23 0.22 0.22 0.20 0.19 0.19 0.18 0.14 0.19 0.23 0.17 0.17 0.23 0.26 0.30 0.29 0.29 0.32 0.35 0.39 0.43 0.45 0.47 0.47 0.48 0.47 0.47
0.37 0.37 0.37 0.36 0.37 0.31 0.30 0.31 0.28 0.35 0.40 0.40 0.37 0.38 0.41 0.35 0.28 0.16 0.11 0.09 0.20 0.12 0.23 0.23 0.22 0.20 0.27 0.21 0.21 0.25 0.22 0.25 0.28 0.28 0.29 0.25 0.28 0.32 0.30 0.34 0.26 0.23 0.21 0.23 0.20 0.21 0.23 0.29 0.29 0.22 0.20 0.22 0.25 0.25 0.26 0.24 0.23 0.26 0.22 0.20 0.20 0.20 0.20 0.22 0.21 0.20 0.18 0.13 0.16 0.21 0.24 0.22 0.16 0.20 0.24 0.25 0.26 0.30 0.33 0.36 0.40 0.43 0.46 0.48 0.49 0.48 0.47 0.47
0.39 0.37 0.37 0.37 0.28 0.33 0.36 0.24 0.30 0.38 0.40 0.42 0.40 0.37 0.34 0.25 0.15 0.11 0.09 0.12 0.24 0.17 0.24 0.19 0.19 0.26 0.21 0.19 0.17 0.22 0.22 0.23 0.23 0.26 0.21 0.25 0.22 0.26 0.27 0.25 0.28 0.20 0.19 0.20 0.19 0.22 0.22 0.24 0.22 0.24 0.28 0.27 0.26 0.23 0.27 0.27 0.25 0.22 0.18 0.16 0.16 0.15 0.19 0.17 0.17 0.19 0.12 0.11 0.17 0.22 0.23 0.24 0.16 0.18 0.25 0.29 0.32 0.34 0.35 0.35 0.37 0.41 0.44 0.47 0.48 0.48 0.48 0.48
0.40 0.38 0.36 0.34 0.36 0.41 0.31 0.22 0.31 0.40 0.41 0.43 0.39 0.31 0.29 0.14 0.15 0.11 0.12 0.23 0.13 0.15 0.17 0.17 0.21 0.21 0.21 0.23 0.19 0.19 0.19 0.20 0.23 0.23 0.20 0.21 0.19 0.18 0.19 0.16 0.18 0.13 0.11 0.14 0.14 0.22 0.17 0.18 0.23 0.25 0.28 0.24 0.21 0.19 0.20 0.23 0.22 0.20 0.18 0.16 0.11 0.10 0.11 0.08 0.13 0.10 0.12 0.11 0.17 0.23 0.24 0.20 0.19 0.21 0.25 0.29 0.32 0.35 0.38 0.38 0.39 0.41 0.44 0.47 0.49 0.48 0.48 0.48
0.41 0.40 0.37 0.34 0.35 0.31 0.30 0.34 0.38 0.38 0.41 0.40 0.34 0.32 0.17 0.13 0.10 0.14 0.15 0.17 0.12 0.19 0.16 0.25 0.19 0.20 0.20 0.18 0.17 0.19 0.24 0.17 0.22 0.20 0.24 0.21 0.19 0.19 0.21 0.20 0.21 0.17 0.10 0.14 0.14 0.14 0.16 0.22 0.21 0.23 0.24 0.26 0.23 0.15 0.15 0.16 0.18 0.18 0.16 0.15 0.11 0.08 0.08 0.07 0.09 0.12 0.12 0.16 0.20 0.21 0.25 0.17 0.20 0.22 0.28 0.28 0.33 0.37 0.38 0.40 0.42 0.44 0.46 0.47 0.49 0.49 0.49 0.48
0.42 0.41 0.33 0.35 0.33 0.34 0.36 0.40 0.39 0.41 0.40 0.37 0.25 0.17 0.14 0.12 0.11 0.17 0.15 0.16 0.15 0.22 0.22 0.20 0.21 0.22 0.19 0.16 0.17 0.20 0.16 0.20 0.20 0.18 0.19 0.17 0.17 0.15 0.17 0.20 0.21 0.18 0.17 0.15 0.12 0.13 0.09 0.10 0.15 0.20 0.16 0.25 0.23 0.21 0.20 0.18 0.19 0.18 0.22 0.18 0.15 0.13 0.10 0.08 0.09 0.08 0.10 0.13 0.17 0.22 0.18 0.14 0.16 0.18 0.29 0.31 0.35 0.38 0.39 0.41 0.44 0.47 0.48 0.50 0.52 0.51 0.50 0.48
0.44 0.42 0.38 0.37 0.35 0.36 0.37 0.40 0.41 0.40 0.36 0.28 0.19 0.16 0.12 0.12 0.15 0.14 0.15 0.16 0.18 0.19 0.18 0.23 0.19 0.19 0.17 0.18 0.20 0.20 0.19 0.15 0.20 0.18 0.17 0.15 0.13 0.15 0.15 0.16 0.19 0.20 0.18 0.11 0.13 0.16 0.13 0.12 0.18 0.25 0.23 0.25 0.21 0.25 0.25 0.22 0.20 0.21 0.22 0.24 0.17 0.15 0.21 0.12 0.14 0.14 0.13 0.13 0.13 0.15 0.15 0.18 0.19 0.27 0.30 0.34 0.37 0.37 0.39 0.40 0.43 0.45 0.48 0.50 0.51 0.50 0.50 0.49
0.45 0.40 0.41 0.31 0.31 0.36 0.40 0.40 0.39 0.38 0.30 0.22 0.16 0.15 0.14 0.16 0.14 0.18 0.16 0.22 0.20 0.16 0.17 0.19 0.17 0.15 0.15 0.15 0.18 0.17 0.22 0.16 0.17 0.18 0.16 0.16 0.15 0.14 0.18 0.18 0.17 0.19 0.16 0.12 0.13 0.10 0.15 0.11 0.19 0.23 0.25 0.23 0.23 0.25 0.24 0.25 0.12 0.18 0.21 0.15 0.19 0.25 0.21 0.16 0.17 0.19 0.19 0.17 0.12 0.17 0.15 0.17 0.23 0.23 0.28 0.32 0.33 0.34 0.37 0.38 0.41 0.43 0.46 0.48 0.50 0.50 0.50 0.50
0.33 0.38 0.27 0.30 0.32 0.39 0.40 0.41 0.42 0.38 0.27 0.19 0.15 0.13 0.17 0.17 0.20 0.19 0.21 0.18 0.19 0.20 0.18 0.13 0.13 0.14 0.12 0.12 0.13 0.14 0.16 0.20 0.15 0.15 0.12 0.18 0.12 0.16 0.16 0.18 0.21 0.19 0.20 0.18 0.15 0.17 0.11 0.12 0.18 0.19 0.18 0.24 0.27 0.25 0.25 0.26 0.26 0.22 0.16 0.19 0.28 0.28 0.24 0.18 0.11 0.14 0.13 0.10 0.11 0.16 0.13 0.14 0.16 0.12 0.26 0.28 0.30 0.32 0.33 0.36 0.39 0.42 0.44 0.46 0.49 0.50 0.51 0.51
0.33 0.32 0.31 0.29 0.34 0.42 0.43 0.41 0.42 0.33 0.23 0.18 0.16 0.16 0.22 0.17 0.22 0.21 0.24 0.22 0.22 0.21 0.16 0.14 0.14 0.20 0.12 0.13 0.11 0.13 0.14 0.12 0.13 0.15 0.11 0.15 0.11 0.19 0.16 0.16 0.20 0.19 0.21 0.23 0.15 0.16 0.18 0.10 0.15 0.19 0.19 0.23 0.26 0.25 0.21 0.26 0.30 0.22 0.20 0.29 0.18 0.14 0.12 0.19 0.17 0.09 0.09 0.08 0.10 0.13 0.16 0.15 0.16 0.15 0.22 0.23 0.27 0.29 0.31 0.35 0.37 0.39 0.42 0.45 0.48 0.49 0.51 0.52
0.35 0.32 0.24 0.30 0.41 0.40 0.39 0.43 0.41 0.28 0.19 0.17 0.17 0.15 0.18 0.19 0.24 0.21 0.23 0.23 0.22 0.19 0.14 0.16 0.13 0.15 0.16 0.12 0.13 0.14 0.14 0.10 0.13 0.11 0.11 0.12 0.11 0.17 0.16 0.18 0.16 0.20 0.21 0.21 0.17 0.17 0.20 0.09 0.10 0.18 0.17 0.20 0.22 0.21 0.13 0.17 0.26 0.29 0.29 0.24 0.28 0.22 0.17 0.15 0.16 0.17 0.17 0.11 0.12 0.09 0.14 0.12 0.18 0.20 0.23 0.25 0.29 0.30 0.31 0.33 0.35 0.38 0.41 0.45 0.48 0.49 0.50 0.52
0.29 0.27 0.23 0.35 0.41 0.42 0.40 0.35 0.24 0.22 0.19 0.16 0.17 0.17 0.22 0.18 0.22 0.24 0.23 0.24 0.20 0.18 0.16 0.15 0.17 0.13 0.15 0.14 0.14 0.12 0.14 0.13 0.12 0.12 0.12 0.13 0.13 0.20 0.15 0.21 0.16 0.17 0.20 0.22 0.18 0.20 0.15 0.18 0.07 0.11 0.18 0.19 0.13 0.17 0.15 0.17 0.16 0.19 0.19 0.19 0.21 0.21 0.24 0.22 0.21 0.17 0.15 0.13 0.13 0.13 0.11 0.13 0.18 0.25 0.25 0.28 0.30 0.32 0.33 0.33 0.35 0.38 0.42 0.46 0.48 0.49 0.51 0.52
0.35 0.26 0.25 0.39 0.40 0.43 0.42 0.26 0.22 0.20 0.20 0.22 0.22 0.20 0.22 0.18 0.21 0.22 0.24 0.24 0.22 0.25 0.18 0.17 0.16 0.14 0.15 0.14 0.13 0.16 0.13 0.13 0.13 0.11 0.11 0.13 0.12 0.10 0.19 0.17 0.20 0.16 0.20 0.19 0.17 0.17 0.13 0.15 0.09 0.09 0.10 0.11 0.13 0.20 0.20 0.20 0.21 0.19 0.19 0.17 0.19 0.18 0.16 0.13 0.12 0.22 0.20 0.17 0.14 0.14 0.11 0.16 0.21 0.28 0.29 0.30 0.32 0.34 0.35 0.35 0.36 0.39 0.43 0.46 0.48 0.50 0.51 0.51
0.22 0.18 0.23 0.36 0.38 0.39 0.32 0.21 0.22 0.25 0.21 0.19 0.18 0.22 0.19 0.26 0.21 0.21 0.22 0.24 0.23 0.20 0.24 0.20 0.20 0.18 0.17 0.15 0.15 0.15 0.14 0.12 0.13 0.12 0.13 0.10 0.15 0.13 0.16 0.21 0.20 0.20 0.16 0.12 0.14 0.19 0.17 0.16 0.11 0.08 0.09 0.10 0.15 0.19 0.23 0.24 0.23 0.22 0.21 0.18 0.22 0.21 0.20 0.16 0.11 0.14 0.19 0.20 0.22 0.20 0.17 0.14 0.24 0.30 0.32 0.32 0.34 0.35 0.36 0.38 0.37 0.40 0.44 0.46 0.48 0.50 0.51 0.52
0.18 0.19 0.30 0.34 0.39 0.32 0.23 0.21 0.23 0.22 0.21 0.23 0.27 0.24 0.26 0.22 0.21 0.21 0.21 0.22 0.19 0.23 0.20 0.19 0.18 0.17 0.18 0.18 0.16 0.15 0.16 0.12 0.12 0.11 0.13 0.13 0.14 0.15 0.19 0.20 0.22 0.20 0.19 0.16 0.18 0.19 0.20 0.13 0.09 0.09 0.12 0.14 0.18 0.21 0.22 0.24 0.21 0.17 0.18 0.21 0.21 0.18 0.20 0.18 0.18 0.20 0.16 0.17 0.16 0.18 0.15 0.14 0.24 0.31 0.32 0.33 0.35 0.37 0.38 0.39 0.39 0.41 0.45 0.46 0.48 0.49 0.50 0.51
0.18 0.19 0.21 0.30 0.37 0.33 0.22 0.17 0.17 0.19 0.21 0.24 0.22 0.21 0.26 0.23 0.21 0.20 0.19 0.20 0.19 0.19 0.18 0.17 0.19 0.21 0.16 0.19 0.17 0.13 0.16 0.11 0.15 0.13 0.12 0.14 0.12 0.21 0.20 0.20 0.21 0.17 0.16 0.14 0.12 0.18 0.11 0.14 0.11 0.08 0.07 0.07 0.12 0.16 0.17 0.19 0.18 0.15 0.14 0.17 0.20 0.22 0.22 0.23 0.22 0.23 0.17 0.17 0.17 0.16 0.11 0.13 0.21 0.30 0.31 0.32 0.32 0.33 0.35 0.38 0.40 0.41 0.44 0.46 0.46 0.48 0.50 0.51
0.15 0.20 0.20 0.23 0.27 0.25 0.21 0.20 0.18 0.18 0.19 0.18 0.18 0.17 0.19 0.18 0.22 0.21 0.21 0.18 0.22 0.19 0.19 0.17 0.19 0.20 0.17 0.20 0.16 0.16 0.17 0.13 0.11 0.16 0.14 0.13 0.13 0.21 0.19 0.19 0.21 0.17 0.20 0.22 0.20 0.22 0.13 0.11 0.10 0.06 0.05 0.04 0.04 0.05 0.06 0.08 0.10 0.13 0.15 0.16 0.19 0.19 0.20 0.19 0.15 0.18 0.14 0.17 0.19 0.17 0.14 0.17 0.21 0.25 0.26 0.28 0.29 0.30 0.34 0.37 0.41 0.44 0.44 0.44 0.45 0.47 0.49 0.51
0.11 0.09 0.13 0.16 0.21 0.20 0.21 0.25 0.20 0.17 0.17 0.17 0.16 0.17 0.18 0.16 0.20 0.23 0.23 0.19 0.21 0.21 0.20 0.19 0.20 0.20 0.17 0.17 0.14 0.13 0.13 0.17 0.13 0.12 0.12 0.12 0.14 0.17 0.19 0.20 0.19 0.18 0.19 0.21 0.21 0.19 0.13 0.14 0.12 0.10 0.08 0.07 0.08 0.09 0.12 0.14 0.13 0.10 0.12 0.14 0.15 0.19 0.21 0.20 0.20 0.17 0.14 0.17 0.16 0.18 0.18 0.17 0.19 0.21 0.23 0.25 0.27 0.29 0.31 0.36 0.39 0.42 0.44 0.44 0.45 0.46 0.49 0.50
0.13 0.09 0.11 0.10 0.17 0.16 0.17 0.20 0.18 0.18 0.15 0.18 0.14 0.16 0.15 0.16 0.17 0.18 0.24 0.15 0.21 0.19 0.19 0.19 0.17 0.15 0.14 0.15 0.12 0.13 0.14 0.14 0.16 0.14 0.12 0.12 0.14 0.15 0.20 0.19 0.19 0.20 0.20 0.19 0.21 0.18 0.14 0.10 0.11 0.12 0.11 0.11 0.12 0.11 0.13 0.14 0.12 0.12 0.12 0.12 0.15 0.16 0.18 0.18 0.16 0.14 0.21 0.18 0.12 0.17 0.19 0.18 0.18 0.21 0.23 0.25 0.27 0.30 0.33 0.36 0.40 0.42 0.43 0.44 0.45 0.45 0.48 0.50
0.09 0.13 0.16 0.17 0.14 0.10 0.13 0.13 0.18 0.16 0.17 0.17 0.15 0.17 0.14 0.14 0.15 0.13 0.18 0.20 0.19 0.22 0.15 0.16 0.16 0.17 0.15 0.14 0.13 0.11 0.12 0.12 0.14 0.11 0.13 0.13 0.13 0.15 0.14 0.19 0.17 0.19 0.20 0.18 0.21 0.16 0.12 0.09 0.11 0.12 0.11 0.12 0.12 0.12 0.13 0.13 0.13 0.12 0.12 0.13 0.13 0.16 0.17 0.16 0.16 0.19 0.21 0.16 0.13 0.15 0.18 0.17 0.19 0.22 0.24 0.26 0.29 0.31 0.33 0.37 0.41 0.45 0.45 0.45 0.44 0.44 0.46 0.49
0.14 0.14 0.14 0.19 0.11 0.14 0.14 0.15 0.17 0.14 0.14 0.14 0.14 0.15 0.13 0.13 0.12 0.15 0.15 0.15 0.17 0.16 0.18 0.11 0.12 0.14 0.15 0.16 0.13 0.11 0.12 0.09 0.09 0.13 0.11 0.12 0.12 0.12 0.11 0.15 0.20 0.20 0.18 0.16 0.17 0.17 0.13 0.10 0.12 0.12 0.10 0.10 0.11 0.11 0.13 0.13 0.13 0.12 0.13 0.14 0.16 0.16 0.16 0.17 0.17 0.19 0.19 0.18 0.18 0.18 0.17 0.17 0.21 0.23 0.25 0.27 0.31 0.34 0.35 0.40 0.43 0.43 0.43 0.44 0.44 0.43 0.45 0.48
0.10 0.12 0.11 0.16 0.14 0.13 0.14 0.15 0.15 0.15 0.12 0.14 0.11 0.13 0.12 0.12 0.12 0.15 0.16 0.14 0.12 0.13 0.17 0.12 0.13 0.14 0.14 0.14 0.13 0.11 0.12 0.12 0.11 0.10 0.13 0.12 0.12 0.13 0.12 0.13 0.12 0.17 0.18 0.15 0.15 0.17 0.12 0.09 0.14 0.12 0.09 0.08 0.09 0.11 0.13 0.13 0.12 0.10 0.12 0.15 0.16 0.16 0.16 0.16 0.16 0.17 0.20 0.18 0.17 0.17 0.17 0.17 0.21 0.26 0.27 0.30 0.33 0.36 0.36 0.36 0.39 0.43 0.44 0.43 0.43 0.43 0.44 0.47
0.15 0.17 0.18 0.13 0.10 0.12 0.14 0.13 0.12 0.12 0.11 0.13 0.11 0.13 0.13 0.13 0.12 0.15 0.14 0.18 0.15 0.13 0.13 0.12 0.15 0.14 0.15 0.14 0.14 0.13 0.16 0.15 0.14 0.14 0.15 0.14 0.11 0.15 0.12 0.13 0.16 0.12 0.14 0.14 0.15 0.15 0.14 0.10 0.14 0.12 0.08 0.07 0.09 0.10 0.11 0.12 0.12 0.11 0.11 0.12 0.13 0.13 0.13 0.14 0.14 0.17 0.16 0.14 0.14 0.16 0.15 0.15 0.19 0.25 0.28 0.30 0.31 0.32 0.32 0.34 0.38 0.41 0.43 0.42 0.42 0.43 0.44 0.46
0.17 0.18 0.17 0.15 0.09 0.13 0.11 0.13 0.13 0.12 0.10 0.12 0.13 0.12 0.12 0.13 0.16 0.15 0.11 0.17 0.17 0.17 0.16 0.17 0.17 0.14 0.13 0.13 0.12 0.14 0.18 0.18 0.17 0.18 0.19 0.19 0.20 0.18 0.19 0.18 0.17 0.15 0.14 0.14 0.17 0.13 0.13 0.12 0.10 0.10 0.07 0.07 0.09 0.11 0.10 0.10 0.09 0.08 0.09 0.11 0.12 0.14 0.16 0.17 0.17 0.18 0.16 0.17 0.14 0.13 0.13 0.18 0.21 0.25 0.25 0.25 0.28 0.30 0.32 0.34 0.37 0.41 0.42 0.42 0.42 0.44 0.45 0.46
Wind_Speed
13 13 13 13 13 14 14 13 13 13 12 11 11 10 10 11 12 12 12 12 12 12 13 13 14 14 15 15 16 17 18 18 18 18 19 17 15 13 13 13 13 13 13 13 13 13 13 13 11 11 11 11 10 9 9 9 9 10 9 8 8 7 6 6 5 5 6 6 6 6 7 7 7 8 9 11 13 13 14 14 16 17 18 19 22 23 25 27
15 16 16 16 16 16 15 15 14 13 13 13 13 13 13 13 13 13 13 13 13 13 13 13 13 14 14 15 16 17 18 18 19 19 19 17 16 16 15 14 14 14 14 14 14 13 12 11 11 12 12 11 11 10 10 10 11 10 8 8 8 7 8 9 8 7 7 6 6 6 7 8 8 8 10 11 12 14 14 16 17 18 19 21 23 24 25 28
17 18 18 18 18 17 16 16 15 15 15 15 15 15 15 14 14 14 14 13 13 13 14 14 13 13 13 14 15 15 16 18 19 19 18 17 17 16 16 15 15 15 15 14 13 13 12 11 12 13 13 12 12 12 12 10 10 10 9 9 8 9 10 11 10 8 7 6 7 9 9 10 10 10 11 10 12 14 15 16 18 19 21 22 24 25 26 28
19 19 19 19 18 18 17 17 17 17 17 17 17 16 16 15 15 15 14 14 14 14 14 15 14 14 14 13 13 14 15 17 18 17 17 17 17 16 16 15 15 15 15 15 14 13 12 12 13 14 13 13 12 14 13 11 10 10 10 9 8 10 11 11 11 10 9 8 9 10 10 11 12 12 12 11 13 15 16 16 17 19 21 23 25 26 27 29
20 19 19 19 19 19 19 19 19 19 18 18 17 17 16 16 15 15 14 14 15 15 15 16 16 17 17 16 15 14 15 17 16 16 17 17 16 16 16 15 15 15 15 15 14 13 13 14 14 14 14 12 12 13 12 12 12 11 11 10 10 11 10 10 11 11 10 10 10 11 11 11 11 13 13 12 13 14 16 17 18 19 21 24 25 26 28 29
20 20 20 20 20 20 20 20 20 19 19 18 18 17 16 15 15 15 15 15 15 15 15 15 15 16 17 18 19 18 18 17 15 16 16 17 16 16 15 15 16 16 15 14 13 13 14 14 15 14 13 13 13 13 12 12 12 11 11 12 12 12 12 11 11 11 10 11 11 11 11 11 12 13 13 13 13 14 16 17 19 20 22 24 26 27 28 29
21 21 21 21 21 20 20 20 19 19 18 18 17 16 16 15 15 15 15 15 15 14 14 14 14 14 15 17 20 20 20 17 15 16 16 17 17 16 16 16 16 16 15 14 14 15 15 16 17 16 14 13 13 14 15 16 15 13 12 12 14 14 13 12 12 11 11 11 11 11 11 12 13 13 13 14 15 16 17 18 20 21 23 26 27 27 28 29
23 22 22 22 21 21 20 20 19 19 18 17 16 16 15 15 15 15 15 15 15 15 15 15 15 15 15 16 18 19 19 16 15 16 16 17 17 17 17 17 17 17 17 16 16 16 16 17 16 15 14 13 13 14 16 18 16 14 13 13 14 14 14 13 13 13 12 12 11 12 12 11 11 13 14 15 16 17 18 19 20 22 24 26 28 28 29 30
23 23 23 22 22 21 20 19 19 18 18 17 16 16 16 16 15 15 15 15 16 16 17 17 17 16 16 16 17 18 18 16 15 16 16 17 17 17 18 18 17 17 18 17 17 17 16 15 14 14 15 14 15 14 14 15 14 14 15 15 15 15 15 14 14 13 12 12 12 12 12 11 12 14 15 15 16 17 19 20 21 23 25 26 28 28 29 31
24 23 23 22 21 21 20 19 19 18 18 17 17 17 17 17 16 16 16 17 18 19 19 20 20 20 20 19 18 18 17 16 16 16 17 18 18 18 19 19 18 18 18 17 17 17 16 16 16 17 17 15 16 15 15 15 15 15 17 17 16 16 15 14 13 12 12 12 12 12 12 13 13 14 15 16 16 18 19 20 22 24 25 27 28 28 30 31
24 23 22 22 21 20 20 19 19 18 18 17 17 17 17 17 18 18 18 19 19 20 21 21 22 23 23 22 21 20 18 18 18 18 18 19 19 19 19 19 18 18 18 18 18 17 18 18 18 17 16 16 17 18 18 17 17 18 18 17 16 16 15 14 13 12 13 13 12 13 13 14 15 15 15 16 17 18 19 20 22 25 26 28 29 29 30 31
23 23 22 22 21 21 20 20 19 19 19 19 19 19 18 18 19 19 20 21 22 22 22 22 22 22 22 23 24 22 21 20 19 19 20 19 20 20 19 19 18 18 18 19 19 18 18 17 17 16 16 16 16 17 17 17 18 17 17 17 16 16 15 14 13 12 14 14 12 14 15 16 16 15 15 16 17 18 19 20 23 26 28 28 29 29 30 32
23 23 22 22 22 22 22 22 21 21 21 21 20 20 20 20 20 20 21 22 22 22 22 22 22 23 22 23 24 23 23 22 21 21 21 21 21 21 21 20 20 20 20 20 19 18 18 18 19 19 18 17 15 15 16 16 17 16 16 17 16 17 16 14 15 14 14 14 14 15 16 16 15 14 16 16 17 19 20 21 24 27 29 29 29 29 31 32
23 23 23 24 24 24 24 23 22 22 21 21 21 21 20 21 21 21 21 21 21 21 21 20 20 22 23 23 23 23 23 23 23 22 21 22 23 23 23 22 22 22 22 22 21 20 20 20 21 20 18 18 17 17 17 16 16 16 16 17 16 17 16 15 15 15 15 15 15 17 17 16 15 14 15 17 18 19 19 21 24 27 29 29 29 30 32 32
24 24 25 26 25 25 24 24 23 22 21 21 21 21 20 20 21 21 21 21 21 21 20 21 21 21 22 23 23 23 23 23 24 22 21 22 22 22 23 23 23 23 22 22 22 22 22 22 21 19 18 18 18 17 16 15 15 15 15 16 17 17 16 16 16 16 16 16 16 17 18 17 16 14 15 17 18 19 19 21 25 27 29 30 29 30 32 33
25 25 25 25 24 23 23 23 23 23 23 22 22 21 21 20 20 21 21 21 22 22 21 21 21 22 22 21 21 22 23 23 22 21 21 21 20 20 21 21 21 21 21 21 20 21 21 21 20 19 18 17 16 16 16 16 16 16 16 16 17 17 17 17 17 17 18 17 16 17 17 19 17 15 15 16 18 19 19 22 25 27 29 30 29 31 32 33
24 24 23 22 22 21 21 21 21 21 21 22 23 23 23 22 21 21 21 21 21 22 23 21 20 21 22 21 20 21 22 22 21 21 20 20 19 18 18 19 19 19 19 19 19 18 18 18 17 17 17 16 15 15 16 17 16 16 16 16 16 16 17 17 17 19 20 18 18 17 17 18 18 15 14 16 17 19 20 22 25 27 30 30 30 32 33 34
22 22 21 20 20 20 20 20 20 20 20 20 21 23 24 24 24 23 21 21 20 20 22 22 20 20 20 20 19 18 20 21 21 21 21 20 20 19 18 18 18 18 18 18 18 18 17 17 17 16 16 16 16 16 16 15 15 15 15 16 16 17 17 17 17 18 20 20 19 19 19 19 18 16 15 15 17 18 20 22 25 28 30 30 31 33 34 35
21 20 20 19 19 20 20 21 21 21 20 20 19 20 21 22 24 25 24 23 22 20 20 20 20 20 18 18 18 17 19 21 21 21 21 20 20 21 21 20 19 19 18 17 17 18 17 17 17 16 17 16 16 16 15 13 14 14 14 15 16 17 17 17 17 18 19 20 19 18 19 19 19 18 16 15 17 18 20 22 25 28 30 31 32 33 34 36
20 19 19 19 19 20 20 21 22 21 21 21 20 19 19 20 20 21 23 25 24 23 21 19 20 20 18 18 19 18 19 21 22 22 22 20 19 20 21 20 20 21 19 17 17 18 18 17 17 17 16 15 15 15 14 13 14 15 16 16 16 17 18 18 18 18 19 19 18 18 19 20 19 18 17 15 17 18 20 23 25 28 30 31 32 34 35 36
19 19 18 18 19 19 20 20 21 21 21 22 22 21 19 19 19 19 20 23 23 23 23 21 20 21 19 18 20 19 19 21 23 23 22 20 19 18 18 18 18 19 18 18 18 17 18 19 18 16 15 15 15 16 16 16 16 17 17 17 17 17 18 18 18 19 19 19 19 20 21 21 19 19 18 16 17 18 20 22 25 29 30 31 33 34 36 37
19 19 18 19 19 19 19 18 19 20 20 21 22 22 21 21 21 20 20 21 21 21 22 21 21 20 19 19 19 19 19 20 21 22 22 22 21 19 18 18 18 17 17 18 17 16 18 20 18 16 17 18 17 17 18 17 18 18 17 17 18 18 18 19 20 20 20 19 19 21 22 22 21 20 18 16 17 18 20 21 25 28 30 32 34 35 36 37
18 18 18 18 18 17 17 17 17 18 19 20 21 21 21 21 21 20 20 20 20 19 20 20 20 20 19 18 18 19 20 19 17 18 20 20 20 19 19 19 18 18 18 18 17 17 18 18 17 17 18 19 19 19 19 18 18 18 18 17 17 18 19 19 20 21 20 20 20 21 22 22 23 22 19 17 17 19 20 21 25 28 30 33 35 35 36 38
18 17 17 16 16 16 16 16 16 17 17 18 19 19 18 18 19 19 18 19 19 18 18 18 18 19 18 17 17 18 19 18 17 17 18 18 17 16 16 16 17 17 17 18 18 18 18 17 17 18 19 20 20 20 20 19 19 18 18 17 17 18 18 18 20 21 22 22 21 23 23 22 24 23 20 20 20 20 21 23 26 29 31 34 36 35 36 38
17 16 16 15 15 14 14 14 14 15 15 16 16 15 15 15 15 16 17 17 17 16 16 16 16 17 16 16 16 16 17 18 17 17 17 17 15 14 14 14 15 15 15 17 18 18 18 17 18 18 18 19 20 20 20 19 19 19 18 17 17 17 18 19 21 22 23 23 22 24 23 22 25 24 21 22 22 22 23 24 27 29 31 35 36 35 36 37
15 15 14 14 13 13 13 13 12 13 13 13 13 13 13 12 12 13 15 16 15 14 15 15 15 15 15 15 14 13 15 15 16 17 17 17 15 14 13 13 14 14 13 15 16 16 17 18 18 18 18 19 20 19 19 19 19 20 19 17 17 18 18 20 21 22 22 22 23 23 22 22 25 25 22 23 23 23 25 26 27 29 32 35 36 35 35 37
14 13 12 12 12 12 12 12 12 12 12 12 11 12 12 11 12 12 12 13 13 13 14 14 14 15 15 15 14 13 12 11 13 16 16 16 15 15 14 14 14 14 12 13 15 15 16 18 19 19 19 19 20 20 19 20 20 20 19 17 17 18 19 19 21 21 21 22 24 23 21 22 24 24 24 24 23 24 26 27 28 29 32 35 35 35 36 37
12 12 12 12 12 13 13 12 12 12 12 12 11 11 11 11 11 11 12 13 11 12 13 12 13 15 14 15 17 15 11 10 11 13 14 14 15 15 15 14 14 14 14 14 14 14 15 17 18 19 19 19 19 19 19 20 20 20 18 17 18 18 19 20 21 21 21 23 24 23 23 22 23 25 25 24 24 25 27 27 28 30 32 34 35 36 36 37
12 12 12 12 12 13 13 13 13 12 12 12 11 10 10 10 11 11 12 12 10 11 11 11 12 13 13 14 16 15 13 12 11 10 12 14 13 13 13 13 13 14 16 15 14 13 14 15 16 17 18 18 18 18 18 19 20 20 18 18 19 19 20 21 21 21 23 23 22 22 24 22 23 25 25 24 25 26 27 28 28 30 32 34 36 36 36 38
12 12 12 12 12 12 12 12 12 12 11 11 10 10 10 10 10 11 11 10 10 10 10 11 11 11 12 13 13 14 13 13 12 11 12 13 13 13 12 12 13 13 14 15 14 13 14 14 15 16 17 17 17 18 18 18 19 20 20 20 20 20 21 22 22 22 23 23 21 22 23 22 23 25 25 24 25 25 27 29 30 31 33 34 36 36 36 37
13 13 13 12 12 11 11 10 10 10 10 10 9 9 10 10 11 12 10 9 9 9 9 10 10 11 12 12 11 12 11 11 12 12 12 12 13 14 13 11 12 12 13 14 14 14 15 15 15 16 17 17 17 18 19 20 21 22 22 22 21 20 21 23 24 24 23 22 22 22 24 22 21 24 26 25 26 26 26 28 30 32 33 35 37 36 36 37
12 12 13 12 11 10 10 10 9 9 9 9 9 9 10 10 10 10 8 7 8 8 8 8 8 9 10 10 10 10 10 10 12 12 11 11 12 12 13 11 10 11 12 13 13 14 15 15 15 16 17 19 19 19 20 22 23 23 23 24 22 21 22 23 23 23 22 21 22 23 24 22 21 24 26 25 26 26 26 28 30 32 33 35 37 37 36 37
11 11 11 11 11 10 10 9 9 9 8 8 9 9 10 10 8 7 6 7 7 7 7 7 6 7 8 10 10 9 9 9 10 12 11 11 11 11 12 12 12 11 11 12 12 14 14 14 17 17 17 19 19 19 20 21 23 24 23 24 23 21 23 23 23 23 22 22 24 24 22 22 24 25 25 24 25 25 27 29 31 32 33 35 37 37 36 37
10 10 10 11 11 10 10 9 9 9 8 9 9 9 11 10 8 7 7 6 7 7 7 6 6 7 8 9 7 8 9 8 9 11 11 11 11 11 11 13 14 12 11 12 12 13 13 14 16 16 16 18 19 18 18 19 21 23 22 22 22 21 21 21 21 21 22 23 25 25 22 23 26 26 25 24 25 26 29 31 32 32 33 36 37 37 36 38
9 9 9 10 10 10 10 9 8 8 8 8 9 9 10 9 7 7 6 5 6 6 5 6 7 8 8 7 7 7 8 7 8 10 10 10 10 11 11 12 13 13 12 12 12 12 12 13 14 15 16 17 18 18 18 19 20 22 22 22 22 21 20 21 20 20 21 23 24 24 23 24 25 26 26 27 27 29 31 32 32 33 34 36 38 37 37 38
7 8 8 9 9 8 8 8 7 7 7 8 9 8 8 7 6 6 5 5 5 5 4 5 7 8 7 7 7 8 7 7 8 8 9 9 9 10 10 10 12 13 13 12 13 13 13 13 15 16 16 16 17 17 19 19 20 21 23 23 21 20 21 22 22 22 23 23 23 24 25 27 27 27 29 30 29 31 32 33 32 33 34 37 37 37 37 38
6 7 7 8 7 7 7 6 6 6 7 8 8 7 6 6 6 5 5 5 4 4 5 5 5 6 6 6 7 8 8 7 8 8 8 8 8 9 10 10 11 12 13 12 13 14 13 13 15 15 16 16 16 17 19 20 20 21 22 21 21 22 23 23 22 24 24 22 23 25 26 28 28 28 30 31 30 32 33 33 33 33 35 37 37 37 38 39
5 5 6 6 6 6 5 5 6 6 7 8 7 6 6 5 5 5 4 4 4 4 6 5 4 5 5 5 6 7 7 8 8 8 8 8 8 9 10 11 11 12 13 13 13 14 14 14 16 15 15 17 17 18 20 21 20 20 21 21 21 22 23 23 23 23 24 23 24 25 26 26 26 27 30 32 31 33 34 33 33 34 35 37 37 37 38 39
3 4 4 4 4 4 4 4 4 5 6 6 5 5 5 5 4 4 4 4 3 4 5 4 4 5 4 5 5 6 7 7 7 8 8 8 8 9 10 10 11 13 13 13 13 14 14 14 16 17 16 17 18 18 19 20 21 22 22 22 22 21 21 23 22 21 22 23 24 26 26 26 25 26 29 31 32 33 34 34 34 35 36 37 37 37 38 39
2 3 2 3 3 2 2 3 4 5 5 4 4 4 4 4 3 3 3 3 3 3 4 3 4 4 4 4 4 5 6 6 7 7 8 8 8 9 10 10 11 13 14 14 14 15 15 14 16 18 18 17 17 18 18 19 20 21 22 23 23 22 22 22 22 21 21 21 22 24 25 27 27 27 28 30 32 32 33 34 34 35 36 36 36 37 39 39
2 2 0 3 3 1 1 3 4 4 3 3 3 3 3 3 3 3 3 3 2 3 3 3 3 3 3 4 5 5 6 7 7 7 8 9 9 9 10 10 11 12 13 14 14 15 15 14 16 18 19 17 17 17 18 18 19 20 21 21 21 22 23 23 22 22 22 21 21 22 24 27 28 28 29 30 31 32 34 34 35 36 37 36 37 38 38 39
1 1 2 3 2 1 2 2 2 2 2 1 2 2 2 2 2 2 2 2 2 2 3 3 3 3 3 4 5 5 6 7 7 8 8 8 9 9 10 10 11 12 13 13 14 15 15 14 16 18 18 17 17 18 18 19 20 20 21 22 22 22 22 21 21 22 23 23 23 22 23 27 29 28 29 30 31 34 35 35 35 36 37 37 37 38 38 39
1 1 2 3 2 1 1 1 2 2 1 1 1 1 1 1 1 1 2 2 2 2 3 3 3 4 4 4 5 5 6 7 7 8 8 8 9 9 10 11 12 12 13 13 14 15 15 15 17 19 19 18 19 19 19 21 21 21 22 22 22 22 22 21 21 22 23 24 24 23 23 27 30 30 30 31 33 35 36 36 36 36 37 37 37 37 38 38
0 1 2 4 3 2 1 2 2 2 2 2 2 2 2 1 1 1 2 2 2 2 3 3 3 4 4 5 5 6 7 7 8 8 8 9 9 10 11 11 12 12 13 13 14 16 16 16 18 20 20 20 20 20 22 23 22 22 22 22 22 22 22 22 23 23 23 23 22 21 23 29 31 30 30 32 34 35 36 37 36 36 37 38 37 37 37 37
1 1 2 4 3 1 2 3 3 2 3 3 2 3 3 3 3 2 2 3 3 3 3 4 4 4 5 6 6 7 7 8 8 9 9 9 10 11 11 12 12 12 13 14 15 16 16 17 17 18 18 19 20 21 23 24 24 23 22 22 22 22 21 22 23 23 23 24 22 21 26 32 33 32 32 33 34 35 37 38 37 37 37 37 36 36 36 37
1 2 3 4 3 2 1 2 2 2 3 3 3 4 3 3 4 4 3 4 4 4 4 5 5 5 6 6 7 8 8 8 9 9 9 10 11 11 11 12 12 12 13 14 15 16 16 17 17 16 16 18 20 22 22 23 24 24 23 22 22 22 21 21 22 22 23 24 25 25 28 33 36 35 34 35 35 36 37 38 37 37 36 36 36 36 36 37
1 2 3 3 3 2 2 2 2 2 4 4 3 4 4 4 5 5 5 5 5 5 5 5 6 6 7 7 7 8 9 9 9 9 10 10 11 12 11 12 13 13 13 14 16 16 16 18 18 17 18 20 21 22 23 23 24 24 24 23 22 21 21 20 21 23 24 26 28 29 29 31 35 35 35 35 36 35 36 37 37 36 36 36 37 37 36 37
2 2 3 2 3 3 2 3 3 2 3 3 4 4 4 5 5 5 5 6 6 6 6 6 7 7 7 7 7 8 9 9 9 10 10 11 12 12 13 13 13 14 15 15 16 16 16 18 18 18 20 21 21 22 23 23 24 24 24 24 23 21 19 20 22 23 24 25 29 31 31 32 34 35 34 35 35 35 36 36 36 36 37 36 37 37 37 37
3 3 3 3 2 3 3 4 3 2 3 4 4 5 5 5 6 6 6 6 6 7 6 7 9 8 7 7 7 8 9 10 10 11 11 11 12 13 14 14 14 15 15 16 17 17 17 19 19 19 22 23 21 22 23 22 24 25 23 22 21 20 20 21 24 24 24 27 30 33 34 34 33 32 33 35 35 35 36 36 36 37 37 36 36 37 37 37
4 4 5 4 3 4 4 5 4 4 5 5 5 6 6 5 6 7 6 6 7 8 7 7 9 8 7 7 7 8 9 9 10 11 11 11 13 13 13 14 14 15 16 17 17 18 18 20 20 20 23 23 22 23 24 23 24 25 24 22 22 22 23 23 24 24 25 28 31 31 33 33 32 30 32 34 34 35 35 36 37 37 37 36 37 38 38 37
6 6 6 5 5 6 6 6 6 5 6 7 6 7 7 7 7 7 7 7 7 8 7 8 8 8 8 8 9 10 11 10 11 12 12 12 14 14 14 15 14 15 17 17 18 18 19 20 22 22 23 24 23 25 26 26 24 24 25 25 23 23 23 22 23 24 25 28 31 31 31 31 31 31 32 33 34 34 36 36 36 37 37 37 37 38 38 37
7 8 8 7 8 8 8 8 8 7 8 8 8 8 8 9 9 8 8 9 9 8 9 8 8 8 9 11 11 12 12 11 12 14 14 14 15 15 16 16 15 15 16 17 18 19 19 20 22 22 23 24 25 26 28 27 25 24 25 24 23 23 23 23 25 25 25 27 29 29 30 31 32 33 34 34 34 34 36 35 36 37 38 37 37 37 37 37
Wind_Direction
111 112 113 115 117 119 119 118 117 116 116 114 111 108 104 101 98 96 92 89 86 82 80 78 78 77 76 77 77 78 77 78 77 75 80 84 83 88 96 99 100 99 99 99 96 92 92 93 90 88 88 85 79 75 68 64 63 60 57 55 58 57 42 35 35 39 42 32 29 27 27 28 10 1 2 359 358 356 352 348 344 341 339 336 334 332 332 334
109 110 110 111 113 114 114 113 113 112 111 110 108 107 105 102 98 95 92 88 85 82 80 79 79 79 79 79 80 81 80 80 78 76 79 80 78 84 93 95 97 99 98 98 94 89 89 87 84 87 87 80 73 71 68 63 60 55 54 51 48 46 36 38 45 48 45 36 34 26 21 18 4 358 359 355 350 351 349 342 340 338 336 335 335 335 335 336
107 108 109 110 111 111 111 110 110 109 109 108 107 106 103 100 96 92 90 88 85 82 80 79 78 78 78 80 82 83 84 83 77 75 77 75 75 81 87 90 92 95 97 98 95 90 88 86 88 89 84 76 71 72 65 56 55 52 52 48 43 46 41 43 47 46 48 46 36 20 15 13 3 359 358 355 353 350 345 338 337 335 334 335 335 336 336 337
105 106 107 108 108 108 108 108 107 107 107 106 105 103 101 97 94 91 88 87 85 83 80 79 78 77 77 80 84 88 90 86 78 74 74 72 74 78 83 87 89 93 97 97 94 90 88 89 90 87 82 74 67 68 58 50 56 51 50 52 51 54 44 42 48 47 48 44 34 23 22 16 6 4 359 357 355 346 340 337 335 334 335 336 336 338 339 339
103 104 105 106 106 107 107 106 105 106 105 105 104 101 98 95 92 89 86 85 85 84 82 81 80 79 78 78 83 92 94 89 80 73 70 69 72 77 81 84 89 95 96 94 91 86 86 89 87 79 76 70 62 63 53 52 64 55 51 57 54 55 49 46 51 47 43 39 32 25 19 10 6 6 1 0 355 342 339 339 338 337 336 338 339 342 342 341
102 103 104 105 105 106 105 104 104 104 103 102 101 98 96 93 90 87 85 85 85 84 83 83 82 81 80 78 80 87 93 91 82 73 68 67 70 76 80 83 90 94 93 90 85 81 84 86 82 77 73 68 62 64 58 53 63 60 52 54 52 52 53 51 50 45 41 37 29 21 14 10 11 4 358 360 352 340 340 341 341 340 340 343 346 346 345 343
101 102 103 104 104 104 104 103 103 102 101 100 98 96 93 91 89 87 85 84 84 84 84 83 83 82 84 83 79 81 89 90 82 74 69 67 70 76 80 85 91 93 89 83 81 83 86 84 82 80 75 71 67 67 65 59 61 64 57 54 53 52 54 53 50 45 42 38 28 22 19 15 13 4 357 354 347 343 344 345 345 345 347 351 350 347 346 345
100 101 102 102 103 103 102 101 101 100 99 98 96 94 91 89 88 87 85 85 85 84 83 82 82 83 88 89 83 81 83 83 81 75 71 69 70 75 80 87 89 89 85 79 83 87 85 84 83 79 73 72 74 73 71 63 55 56 59 58 55 53 53 53 49 45 41 35 28 25 21 14 12 7 359 351 347 348 350 350 350 351 353 352 350 347 347 347
99 100 100 101 101 100 100 99 99 98 97 95 93 91 89 88 87 86 86 86 86 84 82 81 82 84 88 89 88 85 80 79 80 76 73 71 71 75 81 86 86 86 82 79 83 85 83 81 79 79 79 76 75 72 68 64 55 54 61 60 56 54 53 52 47 44 39 31 27 25 17 10 8 5 359 350 349 351 352 353 353 355 353 350 348 347 349 349
98 98 99 99 98 98 98 97 97 96 94 92 90 89 89 88 87 87 87 87 87 85 83 82 84 85 85 85 88 86 79 77 79 76 73 72 72 76 81 83 84 83 81 77 78 79 81 83 82 82 81 75 70 64 61 65 65 64 64 61 59 55 50 48 46 42 36 27 24 21 12 7 4 2 357 349 350 354 353 353 355 356 352 348 348 348 351 351
96 96 97 97 97 97 96 95 94 93 91 90 90 89 90 89 87 86 88 88 88 87 87 85 85 84 82 81 84 85 80 78 78 75 73 73 74 77 78 80 82 83 81 78 77 79 85 88 86 80 73 70 69 63 62 68 71 69 65 57 54 50 45 43 42 36 29 21 18 18 11 6 4 2 356 349 352 353 352 354 356 355 351 348 349 350 352 352
95 95 96 95 95 95 94 93 92 91 91 91 90 90 90 89 89 88 89 89 89 89 88 87 85 84 83 80 81 82 79 78 79 76 75 77 77 77 79 80 81 83 83 81 79 81 86 85 80 74 73 74 69 63 64 68 69 65 58 51 44 40 37 35 33 29 24 18 16 17 9 2 1 358 353 350 352 352 352 355 355 355 351 349 351 352 352 351
94 94 94 94 94 93 92 91 91 91 91 90 90 90 89 89 90 91 91 90 89 89 89 88 86 85 84 83 81 80 78 77 79 79 77 78 79 79 79 81 82 83 84 83 81 81 82 80 78 77 75 71 66 65 68 66 60 53 45 43 40 33 27 24 25 24 21 15 14 14 4 357 356 354 352 351 351 351 352 355 355 355 353 350 352 352 351 350
93 93 94 94 94 93 91 90 90 90 89 89 89 90 89 89 90 91 91 90 90 89 89 89 88 86 85 85 81 78 77 77 77 78 77 79 80 79 78 79 82 83 83 82 80 79 78 77 76 74 69 66 68 68 65 57 49 45 40 34 34 31 21 16 20 22 18 11 13 15 3 355 355 353 352 351 349 349 351 355 355 355 354 352 352 352 350 350
93 94 95 95 94 92 90 89 88 88 88 88 89 90 90 90 90 90 91 91 90 90 90 89 88 88 86 85 81 76 75 75 74 74 75 78 79 79 79 79 80 82 82 81 79 77 76 74 71 67 65 66 67 63 54 47 41 40 37 25 24 28 21 14 15 20 15 8 12 14 4 357 356 353 350 350 348 348 352 354 354 355 354 353 352 351 350 349
94 96 96 95 93 91 90 88 88 88 88 89 90 90 91 91 91 91 93 93 91 88 88 88 87 89 88 84 80 74 73 73 72 73 74 76 77 79 80 80 80 80 79 78 77 74 72 69 67 64 62 59 56 54 48 43 36 32 34 26 21 25 22 15 13 15 12 8 7 7 4 360 357 353 348 348 347 348 353 353 354 355 354 353 352 351 351 349
95 97 96 94 92 89 88 89 89 90 90 91 91 90 89 89 89 93 95 94 92 88 86 85 88 91 87 81 79 73 70 71 71 73 73 74 75 78 82 82 81 79 77 74 71 68 65 64 63 59 54 49 46 47 44 39 31 25 28 27 22 23 23 16 12 11 10 9 5 2 1 357 356 354 348 347 346 347 352 352 354 357 355 353 352 351 351 350
96 96 95 92 90 87 87 88 88 90 92 93 93 91 89 86 86 89 92 93 92 90 85 80 84 91 83 75 74 71 69 71 72 72 71 73 75 77 81 82 80 78 75 70 64 62 62 61 60 56 50 45 42 42 41 37 32 25 24 25 21 20 20 16 12 9 9 9 4 0 357 353 354 354 348 346 346 347 350 352 355 357 355 353 352 351 351 350
95 95 93 90 89 89 89 89 88 89 91 94 96 95 92 88 85 84 84 87 88 89 88 79 81 90 85 73 70 72 73 73 73 70 68 71 74 76 77 77 76 74 70 67 60 57 59 59 56 52 46 41 39 40 41 36 32 28 25 26 24 18 15 12 11 9 11 9 2 358 356 353 353 351 347 346 346 348 349 353 356 355 354 354 352 351 350 350
95 94 92 90 91 91 93 92 89 87 89 93 96 97 96 93 90 86 83 85 87 88 89 84 83 85 83 76 70 74 77 74 72 69 65 68 74 75 72 71 71 69 67 67 61 55 58 61 55 48 41 35 32 32 32 28 28 30 27 25 23 19 13 10 10 8 11 9 360 359 358 354 353 349 347 348 348 349 349 353 355 354 354 353 351 349 349 350
93 93 92 92 93 94 95 94 88 86 88 91 92 93 96 97 96 95 92 89 86 85 85 85 84 81 81 78 71 74 79 74 70 66 63 66 74 73 67 66 68 65 62 64 63 58 59 59 51 43 38 32 29 27 28 27 27 28 27 24 20 17 10 9 11 7 10 10 0 2 1 355 354 350 349 352 351 348 349 353 355 354 355 352 349 349 349 349
93 92 93 92 93 94 95 95 90 87 90 92 92 92 95 96 96 97 97 93 87 83 82 81 81 79 79 79 73 74 79 73 67 63 61 64 69 70 67 66 67 64 58 59 60 55 54 52 43 38 38 36 32 30 30 30 27 24 23 23 19 14 10 10 10 8 11 9 1 4 2 356 355 353 352 355 352 349 350 354 355 355 354 350 349 350 349 349
92 91 91 91 92 93 94 94 92 91 92 94 96 97 96 95 95 95 95 95 89 83 80 78 78 75 74 75 71 72 76 73 68 61 58 63 67 68 68 67 66 64 58 58 59 55 53 46 35 33 37 37 32 29 30 29 25 23 22 22 15 12 14 11 7 7 8 7 4 3 0 356 359 0 358 355 353 352 353 355 354 354 352 350 350 350 349 350
91 89 90 91 91 93 95 95 94 94 94 97 99 101 100 98 96 94 94 94 90 84 81 80 79 75 73 73 70 72 75 73 69 61 56 62 66 66 68 68 66 63 60 61 59 57 53 41 32 34 36 37 33 28 29 28 22 19 20 21 13 9 12 8 5 6 7 7 6 4 1 360 2 4 1 357 356 355 353 353 352 351 350 350 350 350 349 350
89 88 89 90 90 93 97 96 96 98 98 99 100 102 103 102 99 97 94 91 87 81 78 79 78 74 71 68 69 76 77 71 68 61 58 61 63 65 65 65 64 60 58 59 56 53 47 36 34 36 34 36 34 28 27 28 23 16 16 18 13 10 9 6 5 8 9 7 5 6 6 1 1 2 359 358 358 355 353 353 350 349 349 350 350 349 349 350
87 86 87 88 90 95 100 98 98 100 99 100 102 103 104 104 104 103 98 89 82 77 74 74 75 70 65 61 65 79 77 68 66 61 60 61 60 66 64 57 58 56 55 56 51 47 39 31 34 36 32 32 32 27 25 26 25 18 15 17 16 14 11 8 8 10 9 4 2 8 9 359 358 1 357 357 358 354 354 353 349 348 348 349 350 349 349 350
83 81 83 87 90 95 100 99 99 99 99 101 103 104 104 102 105 107 102 89 78 75 73 70 72 69 65 60 62 79 77 63 64 59 57 59 56 63 63 54 54 49 46 51 46 41 36 29 30 31 31 30 28 25 22 25 25 17 15 19 16 13 11 11 12 11 7 4 2 7 9 360 357 358 355 358 360 355 354 351 348 347 348 349 350 349 349 350
78 78 82 88 91 94 98 98 97 96 97 101 101 103 104 102 105 104 100 94 80 76 76 72 71 68 66 63 62 74 75 64 67 55 49 56 54 58 59 54 56 46 40 50 48 38 34 31 29 29 29 27 25 21 18 23 22 14 15 18 14 12 12 12 13 10 6 7 6 3 6 4 357 356 357 360 359 354 352 351 348 347 348 349 350 350 350 351
77 78 83 92 95 94 95 96 96 96 97 98 97 101 104 104 105 99 95 96 86 79 78 74 71 64 61 63 61 64 66 64 68 55 48 54 51 54 57 51 52 46 39 46 49 38 33 32 31 31 28 23 20 15 16 22 18 13 18 19 16 15 14 13 13 11 8 10 6 1 6 7 358 356 360 1 359 354 352 352 349 347 348 349 350 350 351 351
79 80 84 94 99 96 95 94 96 99 97 94 94 96 99 100 101 94 89 94 88 79 76 73 73 64 58 63 59 55 59 59 56 51 50 52 46 48 54 47 45 45 38 38 41 35 29 28 28 29 25 19 15 12 16 19 14 15 19 18 17 16 15 15 13 12 12 9 4 1 5 7 0 358 1 360 357 354 353 353 350 349 350 351 351 351 351 351
83 82 84 93 98 97 96 94 96 101 97 92 92 93 97 95 94 96 93 94 89 78 74 73 71 64 60 66 61 51 55 53 48 49 48 46 42 41 43 38 35 37 32 28 30 25 23 23 21 20 19 17 16 14 15 16 14 16 17 16 17 14 14 14 10 12 14 7 1 0 2 4 0 357 358 356 353 353 353 351 349 349 351 352 352 352 351 351
86 87 85 88 94 94 95 97 97 99 96 91 89 93 98 92 86 94 97 90 87 81 80 77 67 62 60 63 60 51 52 51 45 48 49 47 45 41 42 39 31 31 26 22 22 19 19 19 15 14 15 17 18 15 12 13 14 15 14 15 16 11 10 12 8 10 11 4 1 1 1 2 358 353 355 354 352 352 351 349 348 350 351 352 352 352 351 351
87 88 85 82 86 88 92 97 95 95 95 90 88 91 96 94 89 93 94 90 94 89 83 79 65 58 58 58 53 46 50 49 41 42 45 48 45 39 40 36 30 29 24 20 20 17 14 11 11 13 13 15 18 16 11 8 10 11 11 13 14 11 10 8 5 7 6 0 359 1 3 1 356 354 355 354 352 351 349 348 348 350 351 351 351 352 351 352
85 85 84 81 81 84 88 92 92 93 93 89 90 89 88 92 98 97 93 94 96 85 78 76 59 52 57 59 49 40 46 45 40 41 37 39 39 33 29 26 24 26 23 21 19 16 13 7 8 12 10 10 13 12 11 8 7 7 9 13 13 12 12 7 5 6 2 356 356 1 4 359 353 354 356 355 353 351 349 349 350 350 351 350 351 352 351 352
86 84 84 80 78 79 82 86 90 89 88 87 86 87 90 98 107 103 98 97 90 78 68 66 62 56 50 48 42 39 42 36 35 40 34 33 37 30 25 20 17 20 21 19 13 11 10 2 2 7 7 9 9 5 9 11 6 4 8 12 9 9 11 5 2 1 358 357 358 0 1 355 353 353 355 356 353 350 349 349 349 349 349 350 351 351 351 352
89 86 83 76 74 76 77 81 83 81 86 87 82 83 95 104 109 107 103 93 85 76 60 52 57 56 42 35 36 31 33 31 30 35 31 31 33 26 23 18 13 15 19 19 12 8 7 358 358 4 4 5 6 1 4 7 4 3 7 7 3 5 9 4 358 357 1 2 359 357 355 354 356 356 356 356 352 349 349 349 348 348 349 350 350 351 352 352
96 91 83 72 69 71 73 76 77 78 84 84 83 90 97 99 102 103 95 84 82 76 69 59 50 51 41 34 29 20 24 28 26 30 27 24 25 21 17 12 10 12 12 13 9 6 7 358 355 2 0 358 1 0 359 2 4 5 4 2 2 4 6 4 359 358 2 3 356 355 352 351 356 357 355 355 351 349 349 349 347 347 348 349 350 351 352 352
108 100 85 65 61 65 68 73 76 81 82 79 83 93 94 93 94 95 88 80 78 67 65 64 53 50 48 40 26 13 21 25 20 24 24 18 17 17 14 8 7 9 6 6 6 3 5 360 354 358 359 355 358 0 357 356 360 2 1 360 3 3 -0 360 359 357 359 358 354 354 352 351 354 354 352 353 350 348 349 348 348 347 347 349 350 352 352 352
115 107 82 50 50 61 65 73 75 75 76 78 88 92 89 91 85 83 84 77 72 64 58 57 51 46 43 41 29 11 17 23 19 19 20 14 8 10 13 7 3 3 2 4 4 359 1 1 354 354 356 355 356 358 355 352 355 358 358 357 359 0 358 357 358 357 356 355 353 354 353 352 352 351 351 350 348 348 347 348 348 346 346 349 350 351 352 352
129 122 90 25 32 50 57 68 67 66 72 82 100 94 83 88 80 71 76 67 59 59 51 46 46 42 30 24 21 13 13 17 16 14 10 7 2 1 5 3 358 356 357 0 1 357 358 358 352 351 354 354 353 352 352 352 353 354 355 354 354 355 355 355 355 355 356 355 353 353 351 348 349 352 351 348 347 347 346 346 347 346 347 349 350 350 350 351
151 148 199 353 11 10 45 62 53 57 75 80 86 80 71 84 79 61 59 51 44 43 40 44 43 35 23 13 6 4 5 4 5 5 359 359 0 357 356 357 354 352 354 357 357 355 355 354 350 350 352 351 348 347 350 351 351 351 350 349 350 352 354 355 352 351 354 353 350 351 347 344 348 352 351 348 347 346 345 345 346 346 347 348 349 349 350 351
130 180 265 322 345 6 68 63 15 22 70 63 62 72 66 76 70 48 34 29 27 18 15 23 19 14 12 3 356 357 357 355 356 357 352 350 353 351 350 352 351 350 353 353 352 351 352 353 350 347 348 347 345 346 350 350 349 349 347 346 348 350 351 353 349 347 350 347 345 348 345 343 348 349 348 348 347 345 345 345 344 345 347 348 348 348 350 351
116 208 277 308 295 252 84 37 317 337 354 309 321 16 21 36 35 10 0 2 355 348 356 355 351 356 350 344 350 351 346 345 345 347 345 343 345 346 346 347 346 346 349 349 348 349 349 350 348 344 346 349 348 348 350 351 349 347 345 345 345 345 346 347 345 345 346 344 345 349 344 342 346 347 346 347 346 346 346 345 344 345 346 347 348 348 349 350
144 235 306 327 297 247 231 235 250 285 287 283 303 317 317 320 327 322 318 325 325 326 336 330 328 338 336 337 344 340 337 340 339 340 343 340 341 343 343 343 343 344 345 345 346 347 346 346 346 345 347 349 350 349 348 347 346 343 342 343 343 344 346 345 343 346 345 341 346 349 341 339 345 347 346 346 346 346 345 345 345 345 346 348 348 348 349 350
302 284 308 338 342 279 243 234 217 233 263 271 290 290 294 306 301 293 296 303 304 302 310 316 318 325 328 332 336 334 335 337 333 337 341 336 335 339 339 338 339 340 341 341 343 345 344 344 346 348 347 345 343 342 341 341 341 341 342 343 342 343 343 340 341 343 340 339 343 342 335 336 341 345 345 345 345 345 345 345 346 346 347 348 348 348 348 349
305 300 299 321 347 19 299 260 230 230 248 254 280 284 283 291 287 286 293 297 298 299 304 309 311 318 325 328 329 327 327 331 332 334 334 330 331 335 335 335 337 338 339 340 341 344 345 343 342 342 340 337 335 333 336 340 338 337 337 337 337 338 339 339 338 336 335 338 338 333 331 332 336 341 343 343 344 345 344 345 346 347 348 349 348 348 348 350
309 301 296 297 316 342 341 315 300 263 253 253 269 276 275 283 287 290 292 291 293 297 301 305 307 310 314 319 323 320 319 325 329 327 326 325 328 331 331 333 336 335 337 338 338 342 344 339 339 338 332 331 332 331 334 338 334 331 332 333 334 335 336 335 330 329 335 337 333 333 336 334 333 338 340 341 342 343 343 344 345 347 348 348 348 348 348 349
311 292 298 291 290 294 303 309 305 289 277 273 272 273 274 280 282 282 284 290 294 294 297 304 304 300 300 308 318 317 317 323 323 320 323 323 326 331 331 331 333 333 335 336 335 338 340 334 334 337 332 329 330 329 331 334 332 330 330 330 332 333 331 327 324 327 332 329 326 331 335 332 331 335 337 338 340 340 341 342 344 346 347 347 347 347 347 348
303 295 304 308 290 272 276 288 291 296 297 287 280 277 270 267 272 275 280 290 296 295 295 298 299 296 294 303 315 313 312 319 320 317 321 322 322 326 328 328 330 331 333 333 331 333 335 330 330 334 333 331 330 330 331 333 333 333 332 330 330 330 327 323 324 327 328 323 323 327 329 328 330 333 334 335 337 338 340 342 344 346 346 346 346 346 346 347
291 285 289 297 296 286 285 288 289 292 294 291 285 279 271 263 269 277 280 284 290 293 292 292 293 294 297 304 310 306 303 308 312 312 317 321 321 321 323 324 327 329 329 329 328 328 329 328 329 333 334 332 333 334 335 334 332 331 332 332 331 330 328 327 329 331 329 325 325 327 328 329 332 333 333 335 337 339 341 343 344 345 345 345 345 345 346 347
286 280 278 278 284 289 290 288 287 287 289 290 285 280 278 273 270 277 284 284 285 286 285 286 289 296 306 308 301 299 302 304 305 306 311 315 316 317 319 321 324 326 325 325 326 326 326 326 329 334 333 329 332 336 334 333 332 331 330 330 331 331 331 332 333 333 331 328 329 331 331 331 335 337 337 337 339 340 341 342 343 344 344 344 344 344 345 346
283 282 279 273 274 282 285 285 286 284 281 282 280 277 279 280 279 282 287 289 290 289 286 286 290 297 303 302 297 298 302 304 304 306 308 310 312 314 316 318 321 323 321 322 324 324 325 326 328 330 328 325 330 333 332 333 337 335 331 331 332 332 332 333 333 331 329 330 331 331 330 331 335 338 337 338 340 340 340 342 343 343 343 343 343 343 344 346